"startDT [UTC]","vpos","CH4 [ppm]","stdev(CH4) [ppm]","CO2 [ppm]","stdev(CO2) [ppm]","H2O [ppm]","stdev(H2O)","p_LGR [torr]","T_LGR [C]","mt1_LGR [us]","mt2_LGR [us]","T_ECpre [C]","T_EC1 [C]","T_EC2 [C]","p_inlet [hPa]","p_in [hPa]","p_out [hPa]","T_inlet [C]","RH_inlet [%]","dwpt_inlet [C]","T_vent [C]","RH_vent [%]","dwpt_vent [C]","flow_vent [l min-1]","flow_inlet [l min-1]","dwpt_sample [C]","T_room [C]"
2012-01-01 00:00:00,0.0,1.9288,0.0009,404.17,0.21,150.6,28.8,138.11,28.18,24.59,36.31,0.04,-272.74,-272.74,-46,553,-926,22.6,3.9,-21.8,22.7,4.0,-21.6,5.73,2.37,-25.2,28.3
2012-01-01 00:01:00,0.0,1.9289,0.0010,404.11,0.23,135.1,32.2,138.12,28.18,24.59,36.32,0.04,-272.74,-272.74,-47,554,-926,22.7,3.9,-21.9,22.7,3.9,-21.6,5.73,2.49,-25.2,28.3
2012-01-01 00:02:00,0.0,1.9284,0.0010,404.22,0.18,140.9,31.9,138.11,28.19,24.60,36.31,0.04,-272.74,-272.74,-47,554,-926,22.7,3.8,-22.0,22.8,3.9,-21.7,5.73,2.29,-25.2,28.3
2012-01-01 00:03:00,0.0,1.9289,0.0008,404.13,0.20,139.5,35.3,138.11,28.20,24.60,36.31,0.04,-272.74,-272.74,-46,554,-926,22.7,3.8,-22.0,22.8,3.9,-21.7,5.73,2.41,-25.2,28.3
2012-01-01 00:04:00,0.0,1.9287,0.0009,404.08,0.17,149.3,35.5,138.11,28.20,24.60,36.31,0.04,-272.74,-272.74,-46,554,-926,22.7,3.8,-22.0,22.8,3.9,-21.6,5.73,2.46,-25.2,28.3
2012-01-01 00:05:00,0.0,1.9284,0.0009,404.18,0.22,141.4,30.5,138.11,28.21,24.60,36.31,0.04,-272.74,-272.74,-47,554,-926,22.7,3.8,-22.0,22.8,3.9,-21.7,5.73,2.28,-25.2,28.3
2012-01-01 00:06:00,0.0,1.9289,0.0009,404.12,0.23,148.6,34.4,138.11,28.22,24.60,36.31,0.04,-272.74,-272.74,-46,554,-926,22.7,3.8,-22.0,22.8,3.9,-21.7,5.73,2.44,-25.2,28.3
2012-01-01 00:07:00,0.0,1.9284,0.0010,404.05,0.21,156.9,46.1,138.11,28.22,24.60,36.32,0.04,-272.74,-272.74,-46,554,-926,22.7,3.8,-21.9,22.8,3.9,-21.6,5.73,2.44,-25.2,28.3
2012-01-01 00:08:00,0.0,1.9288,0.0008,404.16,0.19,150.2,37.7,138.11,28.22,24.59,36.31,0.04,-272.74,-272.74,-47,554,-926,22.7,3.9,-21.8,22.8,3.9,-21.5,5.73,2.28,-25.1,28.4
2012-01-01 00:09:00,0.0,1.9287,0.0010,404.08,0.23,147.8,30.9,138.11,28.23,24.59,36.31,0.04,-272.74,-272.74,-47,554,-926,22.8,3.9,-21.8,22.9,3.9,-21.5,5.73,2.47,-25.1,28.4
2012-01-01 00:10:00,0.0,1.9286,0.0009,404.14,0.22,146.9,32.5,138.11,28.24,24.60,36.31,0.04,-272.74,-272.74,-46,554,-926,22.8,3.9,-21.8,22.9,3.9,-21.5,5.73,2.39,-25.1,28.4
2012-01-01 00:11:00,0.0,1.9282,0.0008,404.07,0.19,147.9,37.3,138.11,28.24,24.60,36.32,0.04,-272.74,-272.74,-47,554,-926,22.8,3.9,-21.8,22.9,3.9,-21.5,5.73,2.30,-25.1,28.4
2012-01-01 00:12:00,0.0,1.9276,0.0009,404.09,0.20,149.5,31.5,138.11,28.25,24.60,36.31,0.04,-272.74,-272.74,-47,554,-926,22.8,3.8,-22.0,22.9,3.9,-21.6,5.73,2.50,-25.1,28.4
2012-01-01 00:13:00,0.0,1.9281,0.0009,404.07,0.22,156.5,29.4,138.11,28.25,24.60,36.32,0.04,-272.74,-272.74,-46,554,-926,22.9,3.7,-22.1,22.9,3.8,-21.7,5.73,2.31,-25.1,28.4
2012-01-01 00:14:00,0.0,1.9277,0.0009,404.12,0.23,153.6,31.6,138.11,28.26,24.60,36.31,0.04,-272.74,-272.74,-47,554,-926,22.9,3.8,-22.1,22.9,3.8,-21.7,5.73,2.36,-25.1,28.5
2012-01-01 00:15:00,0.0,1.9280,0.0008,404.02,0.18,155.8,37.5,138.11,28.27,24.60,36.32,0.04,-272.74,-272.74,-47,554,-926,22.9,3.8,-22.0,22.9,3.9,-21.7,5.73,2.49,-25.1,28.5
2012-01-01 00:16:00,0.0,1.9283,0.0010,404.01,0.17,161.0,37.4,138.11,28.28,24.60,36.32,0.04,-272.74,-272.74,-46,555,-926,22.9,3.8,-21.9,23.0,3.9,-21.6,5.73,2.28,-25.0,28.5
2012-01-01 00:17:00,0.0,1.9277,0.0010,404.10,0.18,162.1,33.1,138.11,28.28,24.60,36.31,0.04,-272.74,-272.74,-47,555,-926,22.9,3.8,-21.9,23.0,3.9,-21.5,5.73,2.44,-25.1,28.5
2012-01-01 00:18:00,0.0,1.9281,0.0008,404.12,0.23,155.0,36.3,138.11,28.29,24.60,36.31,0.04,-272.74,-272.74,-47,554,-926,22.9,3.8,-21.9,23.0,3.9,-21.6,5.73,2.41,-25.1,28.5
2012-01-01 00:19:00,0.0,1.9279,0.0008,404.04,0.19,168.3,34.0,138.11,28.30,24.60,36.31,0.04,-272.74,-272.74,-47,555,-926,22.9,3.8,-21.8,23.0,3.9,-21.5,5.73,2.29,-25.0,28.6
2012-01-01 00:20:00,0.0,1.9275,0.0009,404.04,0.18,165.1,31.8,138.11,28.31,24.60,36.31,0.04,-272.74,-272.74,-47,554,-926,22.9,3.9,-21.6,23.0,4.0,-21.3,5.73,2.50,-25.0,28.6
2012-01-01 00:21:00,0.0,1.9275,0.0010,403.99,0.20,157.4,36.1,138.11,28.31,24.60,36.31,0.04,-272.74,-272.74,-47,555,-926,22.9,3.9,-21.6,23.0,4.0,-21.3,5.73,2.30,-25.0,28.6
2012-01-01 00:22:00,0.0,1.9278,0.0010,404.02,0.20,164.0,37.6,138.11,28.32,24.60,36.31,0.04,-272.74,-272.74,-47,555,-926,22.9,3.9,-21.7,23.0,4.0,-21.3,5.73,2.38,-25.0,28.6
2012-01-01 00:23:00,0.0,1.9276,0.0008,404.07,0.18,157.1,38.2,138.11,28.33,24.60,36.31,0.04,-272.74,-272.74,-47,555,-926,23.0,3.9,-21.7,23.0,3.9,-21.4,5.73,2.46,-25.0,28.6
2012-01-01 00:24:00,0.0,1.9278,0.0008,403.91,0.21,172.9,31.2,138.11,28.33,24.60,36.32,0.04,-272.74,-272.74,-47,555,-926,23.0,3.9,-21.6,23.0,4.0,-21.3,5.73,2.27,-25.0,28.6
2012-01-01 00:25:00,0.0,1.9279,0.0010,403.90,0.19,166.1,30.5,138.11,28.34,24.59,36.32,0.04,-272.74,-272.74,-47,555,-926,23.0,3.9,-21.5,23.1,4.0,-21.2,5.73,2.49,-25.0,28.6
2012-01-01 00:26:00,0.0,1.9278,0.0009,403.93,0.19,168.7,35.1,138.11,28.35,24.60,36.32,0.04,-272.74,-272.74,-47,555,-926,23.0,3.9,-21.4,23.1,4.0,-21.1,5.73,2.33,-25.0,28.6
2012-01-01 00:27:00,0.0,1.9277,0.0010,404.03,0.20,166.6,42.1,138.11,28.35,24.60,36.31,0.04,-272.74,-272.74,-47,555,-926,23.0,3.9,-21.4,23.1,4.0,-21.1,5.73,2.32,-25.1,28.3
2012-01-01 00:28:00,0.0,1.9272,0.0009,403.91,0.22,130.8,34.8,138.12,28.35,24.60,36.32,0.04,-272.74,-272.74,-47,555,-926,23.0,3.9,-21.5,23.0,4.0,-21.2,5.73,2.39,-25.4,28.0
2012-01-01 00:29:00,0.0,1.9269,0.0009,404.01,0.24,116.7,34.3,138.13,28.34,24.60,36.31,0.04,-272.74,-272.74,-47,555,-926,22.9,3.9,-21.5,22.9,4.0,-21.3,5.73,2.38,-25.6,27.6
2012-01-01 00:30:00,0.0,1.9272,0.0009,403.97,0.20,73.0,33.6,138.13,28.32,24.60,36.31,0.04,-272.74,-272.74,-47,554,-926,22.7,4.0,-21.5,22.7,4.0,-21.3,5.73,2.40,-25.8,27.3
2012-01-01 00:31:00,0.0,1.9271,0.0008,404.02,0.23,48.5,28.9,138.14,28.29,24.60,36.31,0.04,-272.74,-272.74,-47,554,-926,22.6,4.0,-21.4,22.6,4.1,-21.2,5.73,2.45,-26.3,27.0
2012-01-01 00:32:00,0.0,1.9260,0.0008,404.11,0.21,33.8,27.0,138.15,28.26,24.60,36.31,0.04,-272.74,-272.74,-47,553,-926,22.5,4.1,-21.4,22.5,4.2,-21.1,5.73,2.47,-26.6,26.8
2012-01-01 00:33:00,0.0,1.9260,0.0012,404.14,0.20,29.0,27.2,138.16,28.22,24.60,36.30,0.04,-272.74,-272.74,-47,553,-926,22.3,4.0,-21.6,22.3,4.1,-21.4,5.73,2.44,-26.8,26.6
2012-01-01 00:34:00,0.0,1.9250,0.0009,404.14,0.19,26.0,28.9,138.16,28.18,24.60,36.29,0.04,-272.74,-272.74,-47,552,-926,22.2,4.1,-21.6,22.2,4.1,-21.5,5.73,2.39,-27.0,26.4
2012-01-01 00:35:00,0.0,1.9236,0.0010,404.02,0.18,11.4,17.5,138.17,28.13,24.60,36.30,0.04,-272.74,-272.74,-46,552,-926,22.1,4.1,-21.6,22.1,4.2,-21.4,5.73,2.32,-27.2,26.2
2012-01-01 00:36:00,0.0,1.9240,0.0009,404.04,0.22,20.9,26.5,138.17,28.08,24.59,36.29,0.04,-272.74,-272.74,-47,551,-925,22.0,4.1,-21.7,21.9,4.2,-21.5,5.73,2.39,-27.3,26.3
2012-01-01 00:37:00,0.0,1.9236,0.0009,403.84,0.21,21.7,25.9,138.17,28.05,24.59,36.30,0.04,-272.74,-272.74,-47,551,-925,21.9,4.1,-21.7,21.9,4.2,-21.5,5.73,2.43,-27.2,26.6
2012-01-01 00:38:00,0.0,1.9235,0.0010,403.86,0.20,24.5,24.4,138.16,28.02,24.59,36.28,0.04,-272.73,-272.74,-47,550,-925,21.9,4.2,-21.4,21.9,4.3,-21.2,5.73,2.34,-27.1,26.7
2012-01-01 00:39:00,0.0,1.9234,0.0009,403.88,0.23,30.8,31.5,138.16,28.00,24.59,36.29,0.04,-272.74,-272.74,-46,550,-925,21.9,4.2,-21.4,22.0,4.3,-21.2,5.73,2.29,-27.0,26.8
2012-01-01 00:40:00,0.0,1.9238,0.0011,403.97,0.23,29.2,32.0,138.15,27.99,24.59,36.28,0.04,-272.74,-272.74,-46,550,-925,21.9,4.2,-21.6,22.0,4.2,-21.3,5.73,2.46,-26.8,26.8
2012-01-01 00:41:00,0.0,1.9245,0.0011,403.86,0.24,35.7,25.7,138.15,27.98,24.59,36.29,0.04,-272.74,-272.74,-47,549,-924,21.9,4.2,-21.5,22.0,4.2,-21.3,5.73,2.46,-26.7,26.9
2012-01-01 00:42:00,0.0,1.9244,0.0010,403.85,0.20,37.1,26.7,138.15,27.97,24.59,36.29,0.04,-272.74,-272.75,-47,550,-925,21.9,4.2,-21.4,22.0,4.3,-21.1,5.73,2.30,-26.6,26.9
2012-01-01 00:43:00,0.0,1.9253,0.0008,403.96,0.22,36.1,29.4,138.15,27.97,24.59,36.29,0.04,-272.74,-272.74,-47,550,-924,21.9,4.2,-21.4,22.0,4.3,-21.0,5.73,2.33,-26.5,26.9
2012-01-01 00:44:00,0.0,1.9251,0.0008,403.97,0.18,47.6,28.4,138.14,27.97,24.59,36.29,0.04,-272.74,-272.74,-47,550,-924,21.9,4.2,-21.4,22.1,4.3,-21.1,5.73,2.47,-26.4,26.9
2012-01-01 00:45:00,0.0,1.9255,0.0010,404.11,0.21,42.4,26.4,138.14,27.97,24.59,36.28,0.04,-272.75,-272.74,-46,550,-925,21.9,4.3,-21.2,22.1,4.3,-21.0,5.73,2.44,-26.4,26.9
2012-01-01 00:46:00,0.0,1.9263,0.0011,404.01,0.20,57.4,33.6,138.14,27.98,24.59,36.29,0.04,-272.74,-272.74,-46,550,-924,21.9,4.3,-21.2,22.1,4.4,-20.9,5.73,2.30,-26.3,26.9
2012-01-01 00:47:00,0.0,1.9261,0.0009,404.05,0.19,54.4,31.6,138.14,27.98,24.59,36.29,0.04,-272.74,-272.74,-47,549,-924,21.9,4.3,-21.2,22.1,4.4,-20.9,5.73,2.35,-26.2,27.0
2012-01-01 00:48:00,0.0,1.9264,0.0012,404.13,0.19,56.3,30.5,138.14,27.99,24.59,36.29,0.04,-272.75,-272.74,-47,549,-924,21.9,4.2,-21.4,22.1,4.3,-21.0,5.73,2.49,-26.2,27.0
2012-01-01 00:49:00,0.0,1.9272,0.0008,404.12,0.19,68.7,32.2,138.13,28.00,24.59,36.30,0.04,-272.74,-272.74,-47,550,-924,22.0,4.1,-21.6,22.1,4.2,-21.3,5.73,2.41,-26.1,27.0
2012-01-01 00:50:00,0.0,1.9272,0.0010,403.91,0.19,68.3,33.3,138.13,28.00,24.59,36.30,0.04,-272.74,-272.74,-46,549,-924,22.0,4.2,-21.3,22.1,4.3,-21.0,5.73,2.29,-26.0,27.1
2012-01-01 00:51:00,0.0,1.9269,0.0007,403.90,0.20,74.1,28.7,138.13,28.01,24.59,36.30,0.04,-272.74,-272.74,-47,549,-924,22.0,4.3,-21.3,22.1,4.3,-20.9,5.73,2.40,-26.0,27.1
2012-01-01 00:52:00,0.0,1.9270,0.0011,404.03,0.18,82.5,38.2,138.13,28.01,24.59,36.29,0.04,-272.74,-272.75,-47,549,-924,22.0,4.2,-21.3,22.2,4.3,-20.9,5.73,2.49,-25.9,27.1
2012-01-01 00:53:00,0.0,1.9268,0.0010,404.06,0.21,95.2,32.9,138.13,28.02,24.60,36.29,0.04,-272.74,-272.74,-46,550,-924,22.0,4.2,-21.2,22.2,4.3,-20.9,5.73,2.35,-25.9,27.2
2012-01-01 00:54:00,0.0,1.9276,0.0010,404.13,0.18,92.3,37.4,138.13,28.02,24.59,36.30,0.04,-272.74,-272.74,-46,549,-925,22.1,4.2,-21.4,22.2,4.3,-21.1,5.73,2.30,-25.8,27.2
2012-01-01 00:55:00,0.0,1.9277,0.0011,403.96,0.19,101.6,34.5,138.13,28.03,24.59,36.30,0.04,-272.74,-272.74,-46,549,-924,22.1,4.1,-21.5,22.2,4.2,-21.2,5.73,2.46,-25.8,27.2
2012-01-01 00:56:00,0.0,1.9275,0.0009,403.89,0.21,102.5,33.9,138.13,28.03,24.59,36.30,0.04,-272.74,-272.74,-46,549,-925,22.1,4.2,-21.3,22.2,4.3,-21.0,5.73,2.45,-25.7,27.3
2012-01-01 00:57:00,0.0,1.9281,0.0008,404.07,0.25,93.4,33.7,138.12,28.04,24.59,36.29,0.04,-272.74,-272.74,-47,550,-924,22.1,4.2,-21.3,22.3,4.3,-21.0,5.73,2.29,-25.7,27.3
2012-01-01 00:58:00,0.0,1.9277,0.0010,403.86,0.23,109.3,29.0,138.12,28.04,24.59,36.31,0.04,-272.73,-272.74,-47,550,-924,22.1,4.2,-21.3,22.3,4.3,-20.9,5.73,2.39,-25.6,27.4
2012-01-01 00:59:00,0.0,1.9276,0.0009,404.03,0.22,119.2,35.3,138.12,28.05,24.59,36.30,0.04,-272.74,-272.74,-46,550,-925,22.2,4.3,-21.1,22.3,4.4,-20.8,5.73,2.49,-25.6,27.4
2012-01-01 01:00:00,0.0,1.9281,0.0009,404.03,0.22,118.0,30.6,138.12,28.05,24.59,36.30,0.04,-272.74,-272.74,-47,549,-925,22.2,4.2,-21.3,22.3,4.3,-20.9,5.73,2.31,-25.6,27.4
2012-01-01 01:01:00,0.0,1.9278,0.0009,404.02,0.20,118.5,37.7,138.12,28.06,24.59,36.30,0.04,-272.74,-272.74,-47,549,-925,22.2,4.2,-21.3,22.3,4.3,-21.0,5.73,2.35,-25.5,27.5
2012-01-01 01:02:00,0.0,1.9278,0.0010,404.03,0.22,127.4,32.0,138.12,28.07,24.59,36.30,0.04,-272.74,-272.74,-46,550,-925,22.3,4.2,-21.2,22.3,4.3,-20.9,5.73,2.50,-25.5,27.5
2012-01-01 01:03:00,0.0,1.9280,0.0008,404.07,0.20,125.5,36.4,138.12,28.07,24.59,36.30,0.04,-272.74,-272.74,-46,550,-925,22.3,4.2,-21.2,22.4,4.3,-20.9,5.73,2.33,-25.4,27.5
2012-01-01 01:04:00,0.0,1.9281,0.0008,404.12,0.21,132.3,33.6,138.12,28.08,24.59,36.30,0.04,-272.74,-272.74,-47,550,-925,22.3,4.1,-21.4,22.4,4.2,-21.0,5.73,2.33,-25.4,27.6
2012-01-01 01:05:00,0.0,1.9280,0.0010,404.23,0.23,134.0,34.9,138.12,28.08,24.59,36.30,0.04,-272.74,-272.74,-42,552,-925,22.3,4.1,-21.5,22.4,4.2,-21.2,5.73,2.50,-25.4,27.6
2012-01-01 01:06:00,0.0,1.9281,0.0008,404.26,0.19,126.0,36.4,138.12,28.09,24.60,36.30,0.04,-272.74,-272.74,-46,550,-925,22.4,4.0,-21.6,22.5,4.1,-21.2,5.73,2.33,-25.4,27.6
2012-01-01 01:07:00,0.0,1.9283,0.0009,404.27,0.21,142.2,35.6,138.12,28.10,24.59,36.30,0.04,-272.74,-272.74,-46,550,-925,22.4,4.0,-21.7,22.5,4.1,-21.4,5.73,2.34,-25.3,27.7
2012-01-01 01:08:00,0.0,1.9282,0.0008,404.25,0.20,148.1,34.8,138.12,28.11,24.59,36.30,0.04,-272.74,-272.75,-47,550,-925,22.4,4.0,-21.6,22.5,4.1,-21.3,5.73,2.50,-25.3,27.7
2012-01-01 01:09:00,0.0,1.9283,0.0010,404.20,0.22,143.5,39.4,138.12,28.11,24.59,36.31,0.04,-272.74,-272.74,-45,551,-925,22.5,4.1,-21.5,22.5,4.2,-21.2,5.73,2.32,-25.3,27.8
2012-01-01 01:10:00,0.0,1.9286,0.0009,404.25,0.19,145.7,35.9,138.12,28.12,24.59,36.31,0.04,-272.74,-272.74,-46,549,-925,22.5,4.0,-21.5,22.6,4.1,-21.2,5.73,2.35,-25.2,27.7
2012-01-01 01:11:00,0.0,1.9284,0.0009,404.28,0.19,147.5,28.2,138.12,28.13,24.59,36.30,0.04,-272.74,-272.74,-47,551,-925,22.5,4.1,-21.4,22.6,4.1,-21.1,5.73,2.49,-25.2,27.7
2012-01-01 01:12:00,0.0,1.9281,0.0009,404.15,0.17,150.1,32.6,138.11,28.13,24.59,36.31,0.04,-272.74,-272.74,-47,551,-925,22.5,4.0,-21.5,22.6,4.1,-21.1,5.73,2.29,-25.1,27.8
2012-01-01 01:13:00,0.0,1.9286,0.0009,404.29,0.22,151.0,33.2,138.11,28.14,24.59,36.30,0.04,-272.74,-272.74,-46,551,-925,22.6,4.0,-21.5,22.6,4.1,-21.2,5.73,2.41,-25.1,27.9
2012-01-01 01:14:00,0.0,1.9283,0.0008,404.32,0.27,149.5,33.8,138.11,28.15,24.60,36.30,0.04,-272.74,-272.74,-47,551,-925,22.6,4.0,-21.6,22.6,4.1,-21.2,5.73,2.45,-25.1,27.9
2012-01-01 01:15:00,0.0,1.9284,0.0009,404.23,0.21,148.4,35.3,138.11,28.16,24.59,36.30,0.04,-272.74,-272.74,-47,551,-925,22.6,4.0,-21.4,22.7,4.2,-21.0,5.73,2.27,-25.1,28.0
2012-01-01 01:16:00,0.0,1.9284,0.0010,404.28,0.16,155.6,31.4,138.11,28.16,24.60,36.30,0.04,-272.74,-272.74,-46,552,-925,22.7,4.0,-21.3,22.7,4.2,-21.0,5.73,2.49,-25.1,28.0
2012-01-01 01:17:00,0.0,1.9282,0.0008,404.22,0.21,165.2,32.7,138.11,28.17,24.60,36.31,0.04,-272.74,-272.74,-47,551,-925,22.7,4.1,-21.3,22.7,4.2,-21.0,5.73,2.36,-25.0,28.0
2012-01-01 01:18:00,0.0,1.9288,0.0008,404.38,0.20,159.7,34.8,138.11,28.18,24.60,36.31,0.04,-272.74,-272.74,-47,552,-925,22.7,4.0,-21.5,22.7,4.1,-21.2,5.73,2.33,-25.0,28.0
2012-01-01 01:19:00,0.0,1.9292,0.0009,404.38,0.22,158.7,36.7,138.11,28.19,24.59,36.31,0.04,-272.74,-272.74,-46,552,-925,22.7,3.9,-21.6,22.7,4.1,-21.3,5.73,2.50,-25.0,28.1
2012-01-01 01:20:00,0.0,1.9289,0.0010,404.35,0.23,161.3,33.4,138.11,28.20,24.60,36.31,0.04,-272.74,-272.74,-47,552,-925,22.7,3.9,-21.6,22.8,4.1,-21.2,5.73,2.28,-25.0,28.1
2012-01-01 01:21:00,0.0,1.9287,0.0009,404.29,0.17,164.4,31.4,138.11,28.21,24.59,36.31,0.04,-272.74,-272.74,-47,552,-926,22.8,4.0,-21.5,22.8,4.1,-21.2,5.73,2.45,-24.9,28.2
2012-01-01 01:22:00,0.0,1.9294,0.0010,404.30,0.18,170.1,34.7,138.11,28.21,24.59,36.31,0.04,-272.74,-272.74,-46,552,-926,22.8,3.9,-21.5,22.8,4.1,-21.2,5.73,2.40,-24.9,28.2
2012-01-01 01:23:00,0.0,1.9293,0.0009,404.38,0.19,183.1,31.4,138.11,28.22,24.60,36.31,0.04,-272.74,-272.74,-47,552,-926,22.8,3.9,-21.5,22.8,4.0,-21.2,5.73,2.31,-24.9,28.3
2012-01-01 01:24:00,0.0,1.9290,0.0008,404.37,0.18,165.8,30.6,138.11,28.23,24.60,36.31,0.04,-272.74,-272.74,-47,553,-926,22.9,3.9,-21.6,22.9,4.0,-21.2,5.73,2.51,-24.8,28.2
2012-01-01 01:25:00,0.0,1.9291,0.0008,404.26,0.19,164.4,38.1,138.11,28.23,24.60,36.31,0.04,-272.74,-272.74,-47,553,-926,22.9,4.0,-21.5,22.9,4.1,-21.2,5.73,2.39,-25.0,27.9
2012-01-01 01:26:00,0.0,1.9283,0.0010,404.36,0.19,137.4,34.9,138.12,28.23,24.60,36.31,0.04,-272.74,-272.74,-47,553,-926,22.8,4.0,-21.5,22.8,4.1,-21.2,5.73,2.39,-25.3,27.7
2012-01-01 01:27:00,0.0,1.9286,0.0008,404.36,0.20,106.7,36.4,138.13,28.22,24.60,36.30,0.04,-272.74,-272.74,-47,553,-926,22.7,4.0,-21.5,22.7,4.1,-21.2,5.73,2.41,-25.6,27.3
2012-01-01 01:28:00,0.0,1.9293,0.0010,404.39,0.23,85.6,30.6,138.14,28.20,24.59,36.30,0.04,-272.74,-272.74,-47,552,-926,22.6,4.0,-21.4,22.5,4.1,-21.2,5.73,2.42,-25.8,26.9
2012-01-01 01:29:00,0.0,1.9286,0.0008,404.62,0.21,60.2,33.2,138.14,28.17,24.60,36.30,0.04,-272.74,-272.74,-47,552,-926,22.5,4.1,-21.5,22.4,4.2,-21.2,5.73,2.39,-26.0,26.8
2012-01-01 01:30:00,0.0,1.9285,0.0008,404.74,0.22,48.5,30.1,138.15,28.14,24.59,36.30,0.04,-272.74,-272.74,-47,552,-926,22.4,4.0,-21.7,22.3,4.1,-21.4,5.73,2.35,-26.4,26.6
2012-01-01 01:31:00,0.0,1.9273,0.0009,404.66,0.22,45.1,31.3,138.16,28.10,24.60,36.29,0.04,-272.74,-272.74,-47,551,-926,22.3,4.0,-21.8,22.2,4.1,-21.6,5.73,2.33,-26.6,26.4
2012-01-01 01:32:00,0.0,1.9266,0.0009,404.61,0.22,38.1,33.6,138.16,28.07,24.59,36.29,0.04,-272.74,-272.74,-47,551,-926,22.2,4.0,-21.8,22.1,4.1,-21.6,5.73,2.33,-26.8,26.2
2012-01-01 01:33:00,0.0,1.9253,0.0008,404.46,0.20,29.0,28.3,138.17,28.02,24.59,36.29,0.04,-272.74,-272.74,-47,550,-926,22.1,4.0,-21.8,22.0,4.1,-21.6,5.73,2.37,-26.9,26.0
2012-01-01 01:34:00,0.0,1.9254,0.0010,404.43,0.21,42.7,29.5,138.17,27.97,24.59,36.29,0.04,-272.74,-272.74,-47,550,-926,22.0,4.1,-21.7,21.9,4.2,-21.5,5.73,2.41,-27.0,26.2
2012-01-01 01:35:00,0.0,1.9249,0.0011,404.42,0.22,44.7,34.3,138.16,27.94,24.59,36.29,0.04,-272.74,-272.74,-46,550,-927,21.9,4.1,-21.7,21.9,4.2,-21.5,5.73,2.46,-26.9,26.5
2012-01-01 01:36:00,0.0,1.9249,0.0009,404.27,0.25,44.2,33.4,138.16,27.91,24.59,36.29,0.04,-272.74,-272.74,-46,550,-925,21.9,4.1,-21.6,21.9,4.2,-21.4,5.73,2.46,-26.8,26.6
2012-01-01 01:37:00,0.0,1.9249,0.0010,404.34,0.25,55.5,34.0,138.16,27.90,24.59,36.29,0.04,-272.74,-272.74,-46,552,-925,21.9,4.2,-21.5,21.9,4.3,-21.3,5.73,2.31,-26.7,26.7
2012-01-01 01:38:00,0.0,1.9254,0.0008,404.40,0.24,52.6,34.4,138.15,27.89,24.59,36.29,0.04,-272.74,-272.74,-47,549,-925,21.9,4.1,-21.6,21.9,4.2,-21.3,5.73,2.34,-26.6,26.8
2012-01-01 01:39:00,0.0,1.9256,0.0009,404.34,0.24,56.1,35.5,138.15,27.88,24.59,36.29,0.04,-272.74,-272.74,-47,549,-925,21.9,4.2,-21.5,22.0,4.2,-21.3,5.73,2.48,-26.5,26.8
2012-01-01 01:40:00,0.0,1.9263,0.0009,404.38,0.19,53.4,33.3,138.14,27.88,24.59,36.29,0.04,-272.75,-272.74,-46,549,-925,21.9,4.2,-21.4,22.0,4.3,-21.2,5.73,2.41,-26.4,26.8
2012-01-01 01:41:00,0.0,1.9265,0.0008,404.41,0.20,55.1,31.3,138.14,27.88,24.59,36.29,0.04,-272.74,-272.74,-46,549,-925,22.0,4.2,-21.3,22.1,4.3,-21.1,5.73,2.28,-26.3,26.9
2012-01-01 01:42:00,0.0,1.9268,0.0008,404.55,0.18,67.3,35.4,138.14,27.88,24.59,36.28,0.04,-272.74,-272.74,-47,549,-925,22.0,4.2,-21.4,22.1,4.3,-21.1,5.73,2.41,-26.2,26.9
2012-01-01 01:43:00,0.0,1.9273,0.0009,404.56,0.21,69.8,34.5,138.14,27.89,24.59,36.28,0.04,-272.74,-272.74,-47,549,-925,22.0,4.2,-21.5,22.1,4.3,-21.2,5.73,2.48,-26.1,26.9
2012-01-01 01:44:00,0.0,1.9280,0.0008,404.54,0.19,67.9,39.2,138.13,27.90,24.59,36.28,0.04,-272.74,-272.74,-47,549,-925,22.0,4.2,-21.5,22.1,4.2,-21.2,5.73,2.32,-26.1,27.0
2012-01-01 01:45:00,0.0,1.9277,0.0011,404.51,0.18,87.2,30.4,138.13,27.91,24.59,36.29,0.04,-272.74,-272.74,-46,549,-925,22.0,4.2,-21.3,22.1,4.3,-21.1,5.73,2.33,-26.0,27.0
2012-01-01 01:46:00,0.0,1.9281,0.0008,404.39,0.18,77.6,31.2,138.13,27.91,24.59,36.30,0.04,-272.73,-272.74,-46,549,-925,22.0,4.2,-21.3,22.1,4.3,-21.0,5.73,2.49,-25.9,27.1
2012-01-01 01:47:00,0.0,1.9285,0.0010,404.41,0.19,92.1,38.5,138.13,27.92,24.59,36.29,0.04,-272.74,-272.74,-47,549,-925,22.1,4.2,-21.2,22.2,4.3,-21.0,5.73,2.41,-25.8,27.1
2012-01-01 01:48:00,0.0,1.9289,0.0011,404.38,0.21,97.3,32.3,138.13,27.93,24.59,36.30,0.04,-272.74,-272.75,-46,549,-925,22.1,4.2,-21.3,22.2,4.3,-21.0,5.73,2.28,-25.8,27.1
2012-01-01 01:49:00,0.0,1.9289,0.0009,404.53,0.18,101.2,31.8,138.13,27.94,24.59,36.29,0.04,-272.74,-272.74,-46,549,-924,22.1,4.1,-21.4,22.2,4.3,-21.1,5.73,2.45,-25.7,27.2
2012-01-01 01:50:00,0.0,1.9292,0.0009,404.48,0.21,107.1,35.9,138.12,27.95,24.59,36.30,0.04,-272.74,-272.74,-46,549,-925,22.1,4.1,-21.6,22.2,4.2,-21.2,5.73,2.46,-25.7,27.2
2012-01-01 01:51:00,0.0,1.9292,0.0009,404.52,0.19,112.7,30.8,138.12,27.96,24.59,36.30,0.04,-272.74,-272.74,-47,549,-925,22.2,4.1,-21.6,22.3,4.2,-21.3,5.73,2.28,-25.6,27.3
2012-01-01 01:52:00,0.0,1.9291,0.0010,404.56,0.22,123.3,29.9,138.12,27.97,24.59,36.29,0.04,-272.75,-272.74,-47,549,-925,22.2,4.1,-21.6,22.3,4.2,-21.2,5.73,2.41,-25.6,27.3
2012-01-01 01:53:00,0.0,1.9296,0.0008,404.53,0.17,122.4,32.6,138.12,27.98,24.59,36.30,0.04,-272.74,-272.74,-46,549,-925,22.2,4.1,-21.6,22.3,4.2,-21.2,5.73,2.48,-25.5,27.3
2012-01-01 01:54:00,0.0,1.9291,0.0010,404.58,0.19,126.8,34.8,138.12,27.98,24.59,36.30,0.04,-272.74,-272.74,-47,549,-925,22.3,4.1,-21.6,22.3,4.2,-21.2,5.73,2.29,-25.4,27.4
2012-01-01 01:55:00,0.0,1.9293,0.0009,404.66,0.19,123.8,35.8,138.12,27.99,24.59,36.29,0.04,-272.74,-272.74,-47,549,-925,22.3,4.1,-21.6,22.4,4.2,-21.3,5.73,2.39,-25.4,27.4
2012-01-01 01:56:00,0.0,1.9290,0.0008,404.64,0.20,128.7,29.7,138.12,28.00,24.59,36.29,0.04,-272.74,-272.74,-46,550,-925,22.3,4.1,-21.5,22.4,4.1,-21.3,5.73,2.49,-25.4,27.5
2012-01-01 01:57:00,0.0,1.9291,0.0008,404.61,0.19,142.4,35.9,138.12,28.01,24.59,36.30,0.04,-272.74,-272.74,-47,550,-925,22.3,4.1,-21.5,22.4,4.2,-21.2,5.73,2.29,-25.3,27.6
2012-01-01 01:58:00,0.0,1.9285,0.0008,404.59,0.19,130.2,32.3,138.12,28.02,24.60,36.30,0.04,-272.74,-272.74,-47,549,-925,22.4,4.1,-21.5,22.4,4.2,-21.1,5.73,2.39,-25.3,27.6
2012-01-01 01:59:00,0.0,1.9295,0.0009,404.67,0.22,146.1,32.1,138.11,28.03,24.59,36.29,0.04,-272.74,-272.74,-46,552,-923,22.4,4.1,-21.4,22.5,4.2,-21.1,5.73,2.48,-25.2,27.6
2012-01-01 02:00:00,0.0,1.9294,0.0010,404.55,0.20,146.9,32.6,138.11,28.04,24.59,36.31,0.04,-272.74,-272.74,-46,550,-925,22.4,4.1,-21.4,22.5,4.2,-21.1,5.73,2.29,-25.2,27.7
2012-01-01 02:01:00,0.0,1.9290,0.0008,404.60,0.23,151.3,35.1,138.11,28.05,24.59,36.30,0.04,-272.74,-272.74,-46,550,-925,22.5,4.1,-21.4,22.5,4.2,-21.1,5.73,2.42,-25.2,27.7
2012-01-01 02:02:00,0.0,1.9292,0.0008,404.63,0.19,155.4,30.2,138.11,28.06,24.59,36.30,0.04,-272.74,-272.74,-47,550,-925,22.5,4.1,-21.3,22.5,4.2,-21.0,5.73,2.45,-25.1,27.7
2012-01-01 02:03:00,0.0,1.9290,0.0008,404.64,0.21,153.3,32.8,138.11,28.07,24.59,36.30,0.04,-272.74,-272.74,-46,551,-924,22.5,4.1,-21.3,22.6,4.2,-21.0,5.73,2.27,-25.1,27.7
2012-01-01 02:04:00,0.0,1.9290,0.0008,404.54,0.22,156.8,35.3,138.11,28.08,24.60,36.31,0.04,-272.74,-272.74,-46,550,-925,22.6,4.1,-21.3,22.6,4.2,-21.0,5.73,2.47,-25.0,27.8
2012-01-01 02:05:00,0.0,1.9292,0.0009,404.57,0.20,160.3,28.3,138.11,28.09,24.59,36.30,0.04,-272.74,-272.74,-47,551,-925,22.6,4.1,-21.3,22.6,4.2,-21.0,5.73,2.38,-25.0,27.9
2012-01-01 02:06:00,0.0,1.9296,0.0008,404.56,0.20,170.0,33.6,138.11,28.10,24.59,36.31,0.04,-272.74,-272.74,-46,551,-925,22.6,4.1,-21.3,22.7,4.2,-20.9,5.73,2.31,-25.0,27.9
2012-01-01 02:07:00,0.0,1.9297,0.0009,404.54,0.24,165.6,37.5,138.11,28.11,24.60,36.31,0.04,-272.74,-272.74,-46,551,-925,22.7,4.1,-21.2,22.7,4.2,-20.9,5.73,2.50,-24.9,27.9
2012-01-01 02:08:00,0.0,1.9297,0.0008,404.52,0.21,180.5,30.1,138.11,28.11,24.59,36.31,0.04,-272.74,-272.74,-47,551,-925,22.7,4.1,-21.2,22.7,4.2,-20.9,5.73,2.28,-24.9,28.0
2012-01-01 02:09:00,0.0,1.9303,0.0008,404.62,0.20,182.8,32.9,138.11,28.12,24.59,36.30,0.04,-272.74,-272.74,-46,551,-925,22.7,4.1,-21.2,22.7,4.2,-20.9,5.73,2.42,-24.9,28.0
2012-01-01 02:10:00,0.0,1.9303,0.0011,404.59,0.23,163.6,29.7,138.11,28.13,24.59,36.31,0.04,-272.74,-272.74,-46,552,-925,22.7,4.1,-21.3,22.7,4.2,-21.0,5.73,2.46,-25.0,27.6
2012-01-01 02:11:00,0.0,1.9297,0.0009,404.67,0.17,142.3,39.1,138.12,28.13,24.59,36.30,0.04,-272.74,-272.74,-47,552,-926,22.7,4.1,-21.3,22.7,4.2,-20.9,5.73,2.41,-25.2,27.4
2012-01-01 02:12:00,0.0,1.9297,0.0008,404.62,0.22,120.4,30.6,138.13,28.13,24.60,36.31,0.04,-272.74,-272.74,-47,551,-926,22.6,4.1,-21.3,22.6,4.2,-21.0,5.73,2.39,-25.5,27.1
2012-01-01 02:13:00,0.0,1.9298,0.0010,404.66,0.26,93.5,34.0,138.13,28.11,24.60,36.30,0.04,-272.74,-272.74,-47,551,-926,22.5,4.1,-21.3,22.5,4.2,-21.0,5.73,2.37,-25.8,27.0
2012-01-01 02:14:00,0.0,1.9296,0.0009,404.65,0.26,75.1,38.1,138.14,28.09,24.60,36.30,0.04,-272.74,-272.74,-47,551,-926,22.4,4.1,-21.3,22.4,4.2,-21.0,5.73,2.34,-26.0,26.7
2012-01-01 02:15:00,0.0,1.9294,0.0012,404.94,0.19,54.9,33.3,138.15,28.06,24.59,36.29,0.04,-272.74,-272.74,-47,551,-926,22.3,4.2,-21.3,22.3,4.3,-21.0,5.73,2.33,-26.2,26.5
2012-01-01 02:16:00,0.0,1.9288,0.0007,404.90,0.23,44.1,28.7,138.15,28.03,24.59,36.29,0.04,-272.74,-272.74,-46,551,-926,22.2,4.1,-21.5,22.2,4.2,-21.3,5.73,2.36,-26.4,26.4
2012-01-01 02:17:00,0.0,1.9277,0.0009,404.76,0.17,47.6,32.8,138.16,27.99,24.59,36.30,0.04,-272.74,-272.74,-47,550,-926,22.1,4.1,-21.5,22.1,4.2,-21.3,5.73,2.39,-26.6,26.3